woensdag 23 mei 2018 | Home | Bestenlijsten | Nieuws | Uitslagen | Videos | Wedstrijden | VZA Ranglijsten | Weer |
 
 
Recent nieuws meer nieuws
18-05: Hardlopen in de Zeeuwse media
30-04: Hardloopadviezen
21-04: Erwin Harmes wint Marathon Zeeuws-Vlaanderen
09-04: Gezocht: gunstige dag voor marathon
19-03: Progressie boeken als hardloper
18-03: Jubileumeditie Zwinstedenloop prooi voor Diaz Rodriguez
Wedstrijdagenda meer wedstrijden
vr 25-05: 7e Schellachloop Middelburg
za 26-05: 9e IFAM Outdoor Oordegem
zo 27-05: 28e Leiden Marathon
zo 27-05: 8e Halve van Renesse
wo 30-05: Hoek Run
vr 01-06: 3e Gaperloop Gapinge
vr 01-06: Track Meeting Utrecht
za 02-06: Putbosmeeting Oordegem
za 02-06: Ladiesrun Goes
do 07-06: Avondbaanwedstrijd Zierikzee
vr 08-06: 10e Griffioenloop Middelburg
za 09-06: Allonsius Sport Meeting Huizingen
za 09-06: 36e Nationale Lenteloop Papendrecht
za 09-06: 47e Gouden Spike Leiden
di 12-06: Avondbaanwedstrijd Terneuzen
vr 15-06: 10e Lepraloop Oostkapelle
za 16-06: 31e Bavoloop Rijsbergen
wo 20-06: Avondbaanwedstrijd Vlissingen
do 21-06: 19e Molenloop Stellendam
za 23-06: Zeeuwse kampioenschappen Oostburg
zo 24-06: Grote Prijs Lokeren
zo 24-06: 35e Halve Marathon Roosendaal
Recente uitslagen meer uitslagen
vr 18-05: 18e Stadsloop Middelburg
za 12-05: 22e Meidoornloop Nisse (325)
wo 09-05: 10e Stadsloop Biervliet (135)
zo 06-05: Worstel en kom boven loop Wolphaartsdijk (47)
za 05-05: Vrijgezellenloop Vlissingen (30)
vr 27-04: 43e Omloop van Menheerse Middelharnis
vr 27-04: Koningsloop Oostburg
zo 22-04: 7e Zwaakse Weel loop Kwadendamme (66)
za 21-04: 10e Marathon Zeeuws-Vlaanderen Hulst (505)
vr 20-04: 7e Oranjemuidenloop Arnemuiden (88)
 
Zoek tenminste met 3 tekens van wedstrijd, datum, plaats of atleet
26e Kustcross
Vlissingen, zaterdag 7 maart 2015 - Organisatie: Dynamica
9.66 km
PltsNaam
Tijdkm/umin/km
1  Tim PleijteDynamica33.34Mse   17.267  3:28
2  Martijn de KokDynamica35.24Mse   16.373  3:40
3  Erwin HarmesGonz├ílez Running36.27Mse   15.901  3:46
4  Eric WolfertFlakkee38.21Mse   15.113  3:58
5  Marco GeldofMiddelburg38.29M45   15.061  3:59
6  Maarten HarthoornKapelle-Biezelinge38.43M35   14.970  4:00
7  Luuk BalkenendeAV'5638.54Mse   14.900  4:02
8  Wim van SparrentakDynamica39.01M45   14.855  4:02
9  Michiel LelieRKHAV39.11JoA   14.792  4:03
10  Arjo VerhageDynamica39.18M45   14.748  4:04
11  Benny ThuyRKHAV40.01M45   14.484  4:09
12  Michael de WildeSMO40.09Mse   14.436  4:09
13  Michael de HamerScheldesport40.12M35   14.418  4:10
14  Michel BuijckDynamica40.17M35   14.388  4:10
15  Patrick de VosAV'5640.35JoA   14.282  4:12
16  Chris de SmitRKHAV40.42M35   14.241  4:13
17  Edward de LengDynamica40.49M50   14.200  4:14
18  Kris de KreekScheldesport41.19JoA   14.028  4:17
19  Peter BalkenendeAV'5641.22M45   14.011  4:17
20  Sven VermeulenVlissingen41.51Mse   13.849  4:20
21  Jan de DobbelaereSMO42.10M45   13.745  4:22
22  Johan KarelseAV'5642.25M40   13.664  4:23
23  Dennis ThuyRKHAV42.42JoA   13.574  4:25
24  Jeroen de NoodDynamica43.16Mse   13.396  4:29
25  Jeroen van der MeideVlissingen43.44Mse   13.253  4:32
26  Maarten de Bolster?43.57Mse   13.188  4:33
27  Rob de PagterRitthem44.05M35   13.148  4:34
28  Pieter WisseDynamica44.09M45   13.128  4:34
29  Rian van den BroekeDynamica44.29M50   13.030  4:36
30  Henk LousDynamica45.05M55   12.856  4:40
31  Alwin de ZeeuwScheldesport45.14M40   12.814  4:41
32  Piet van MourikDelta Sport45.28M50   12.748  4:42
33  Joop LasseurDelta Sport45.30M70   12.738  4:43
34  Kees den HollanderDreischor46.05M45   12.577  4:46
35  Jochem VersluijsMiddelburg46.09Mse   12.559  4:47
36  Gerben van de BliekGoes46.12Mse   12.545  4:47
37  Peter DekkerDynamica46.34M40   12.447  4:49
38  Ewald ProvoostBiggekerke46.46M40   12.393  4:50
39  Laurens MeeuwsenKrabbendijke46.52M45   12.367  4:51
40  Albert PlatteeuwScheldesport47.49M45   12.121  4:57
41  Piet HopmansSpado47.52M65   12.109  4:57
42  Nick PaulusseDynamica47.55M40   12.096  4:58
43  Ron DellebekeDynamica47.57M55   12.088  4:58
44  Aswin KoningsDynamica48.01M45   12.071  4:58
45  Wouter de SmitOudelande48.21Mse   11.988  5:00
46  Katleen MeireSMO48.47V35   11.881  5:03
47  Leon ReijnhoudtKoudekerke48.50Mse   11.869  5:03
48  Bart-Jan SluisClimax49.09Mse   11.792  5:05
49  Wim de JongeAV'5649.24M65   11.733  5:07
50  Peter van HeckeSMO49.42M35   11.662  5:09
51  Martin LelieRKHAV50.06M45   11.569  5:11
52  Sandra JoziasseDynamica50.08V35   11.561  5:11
53  Arthur PouwelseMiddelburg50.10M50   11.553  5:12
54  Wim TabakVlissingen50.23M50   11.504  5:13
55  Annelies van der PerkOost-Souburg50.34V45   11.462  5:14
56  Christel VerbeekVlissingen51.03V45   11.354  5:17
57  Anneke HarthoornKapelle-Biezelinge52.13V35   11.100  5:24
58  Kees van der HeijdenVlissingen53.01M45   10.932  5:29
59  Imo JongepierNieuw- en Sint Joosland53.08M55   10.908  5:30
60  Leen VroegindeweyFlakkee55.27M35   10.453  5:44
61  Ineke TempelaarDynamica55.46V55   10.393  5:46
62  Jelle ReijnhoudtOost-Souburg55.48M35   10.387  5:47
63  Jack KloostermanKoudekerke56.02M55   10.344  5:48
64  Jannie de VriesDynamica56.37V55   10.237  5:52
65  Stephanie VermeulenVlissingen56.44Vse   10.216  5:52
66  Dimmen de FouwVlissingen57.59M45   9.996  6:00
67  Stephanus BostelaarMiddelburg58.01M55   9.990  6:00
68  Lena KleingeldVlissingen58.54V55   9.840  6:06
69  Jan SipmaMeliskerke1.01.03M55   9.494  6:19
70  Regina VerhageDynamica1.01.10V50   9.476  6:20
71  Christina PeuteDynamica1.03.08V35   9.181  6:32
72  Mirjam de SturmMiddelburg1.03.58V40   9.061  6:37
73  Lenie van KlevenVlissingen1.04.24V60   9.000  6:40
74  Natasja ForatMiddelburg1.06.26V35   8.725  6:53
75  Joke van HemertNieuwdorp1.11.06V55   8.152  7:22
Mannen: 56 (74.67%) => M35=8 - M40=5 - M45=14 - M50=5 - M55=6 - M65=2 - M70=1 - Mse=15
Vrouwen: 15 (20%) => V35=5 - V40=1 - V45=2 - V50=1 - V55=4 - V60=1 - Vse=1
Jongens: 4 (5.33%) => JoA=4

Overzicht Top3, winnares en aantal deelnemers in eerdere jaren

JaarWinnaarTijd2eTijd 3eTijdWinnaresTijd#
2016Tim Pleijte34:04Job de Feijter35:41Erwin Adan35:54Laurey van de Berge42:0580
2015Tim Pleijte33:34Martijn de Kok35:24Erwin Harmes36:27Katleen Meire48:4775

3.22 km
PltsNaam
Tijdkm/umin/km
1  Tommy StaalAV'5611.31Mse   16.776  3:35
2  Wouter VerstraateDynamica12.14Mse   15.793  3:48
3  Jasper ZuidhofAV'5612.31Mse   15.435  3:53
4  Pieter WisseRotterdam12.55Mse   14.957  4:01
5  Lars de JongsteDelta Sport13.28Mse   14.347  4:11
6  Waeoby JonesScheldesport14.12MeB   13.606  4:25
7  Maaike de KreekScheldesport14.16MeB   13.542  4:26
8  Amber BoutensScheldesport14.29MeB   13.339  4:30
9  Shanice HarmonMiddelburg14.49Vse   13.039  4:36
10  Judith LodderFlakkee15.19MeB   12.614  4:45
11  Caroline VeringaDynamica15.48V40   12.228  4:54
12  Annemarie de WaardDelta Sport16.31MeB   11.697  5:08
13  Leonie van KlinkenNieuwerkerk16.37Vse   11.627  5:10
14  Ronald RasenbergScheldesport16.42M45   11.569  5:11
15  Harold de MaatScheldesport16.45Mse   11.534  5:12
16  Paulette de KrakerDynamica16.54Vse   11.432  5:15
17  Loes de WidtDelta Sport18.57Vse   10.195  5:53
18  Angelique HarinckDynamica19.13V45   10.054  5:58
19  George SchanckWielingen21.38Mse   8.931  6:43
Vrouwen: 6 (31.58%) => V40=1 - V45=1 - Vse=4

Overzicht Top3, winnares en aantal deelnemers in eerdere jaren

JaarWinnaarTijd2eTijd 3eTijdWinnaresTijd#
2018Franklin van Anrooij11:48Paavo de Leng11:59Jasper Zuidhof13:07Shirin van Anrooij12:5733
2017Maikel Peeman11:13Bezuayehu Petersen11:24Bereket Petersen11:30Anjolie Engels12:4926
2016Jasper Zuidhof11:41Patrick de Vos11:47Franklin van Anrooij11:52Veerle Campenhout14:5127
2015Tommy Staal11:31Wouter Verstraate12:14Jasper Zuidhof12:31Shanice Harmon14:4919


Snelheid en tempo zijn berekend op de vermelde afstand. Bij een onjuiste afstand wijken deze uiteraard af!

Fouten melden via info@atletiekzeeland.nl Categorie fout? Mail dan geboortedatum. (geldt alleen voor Zeeuwen)

De server had 0.427 seconden nodig om deze lijst met 94 prestaties samen te stellen.

Terug naar boven

Jongens B98/99  4420m
    naam                   geb stn club          tijd
001 Bot          Jordi      98 0863 THOR         0:17:41
002 Harinck      Sergio     99 0851 Dynamica     0:17:50
003 Balkenende   Bart       98 0856 AV'56        0:18:03
004 Ridder       Rens de    99 0855 Dynamica     0:18:13
005 Huigh        Floris     98 0859 Wielingen    0:19:40
006 Wege         Ivar v d   99 0857 Scheldesport 0:21:47

Jongens C00/01  2440m
    naam                   geb stn club          tijd
001 Dobbelaere   Robbe         0828 SMO          0:09:55
002 Nefs         Emiel      01 0809 Dynamica     0:10:44
003 Tuil         Niels van  01 0795 Delta Sport  0:10:49
004 Haverbeke    Emiel van     0830 SMO          0:10:53
005 Kruisifikx   Thomas     01 0817 Scheldesport 0:11:02
006 Elsgeest     Jouri         0831              0:11:24
007 Konings      Sylvan     00 0807 Dynamica     0:11:50
008 Lindhout     Siem       00 0812 Delta Sport  0:12:05
009 Putten       Axl van    00 0801 AV'56        0:12:20
   
Meisjes C00/01  2440m
    naam                   geb stn club          tijd
001 Heikoop      Iris       01 0729 Delta Sport  0:11:40
002 Wisse        Maria      01 0740 Dynamica     0:13:00
003 Lange        Nikita de  01 0726 Dynamica     0:13:09
004 Dieren       Judith van 00 0723 Flakkee      0:13:17
005 Niemanstverd Amy        01 0724 RKHAV        0:14:11
006 Moerland     Miquette   01 0728 Delta Sport  0:14:14
007 Dhanis       Stephanie  01 0725 RKHAV        0:14:50
   
Jongens D02/03  2440m
    naam                   geb stn club          tijd
001 Schets       Wouter     02 0760 AV'56        0:10:01
002 Kapteijn     Stef       02 0785 AV'56        0:10:20
003 Roos         Matthijs   02 0767 AV'56        0:10:55
004 Maat         Ralph de   03 0774 Scheldesport 0:11:09
005 Visser       Lucas de   02 0800 SMO          0:11:18
006 Anceaux      Daniel     03 0775 Scheldesport 0:11:27
007 Zeeuw        Nathan de  02 0768 Scheldesport 0:11:39
008 Koops        Thijs      03 0796 Souburg      0:11:47
009 Campe        Guillaume     0799 SMO          0:11:52
010 Os           Martiijn v 03 0764 RKHAV        0:12:47
011 Vierbergen   Mats       03 0763 RKHAV        0:13:00
012 Kramer       Sven       03 0757 AV'56        0:13:27
013 Dobbelaar    Jonathan   03 0773 Scheldesport 0:13:31
014 Wieles       Chris      03 0776 Scheldesport 0:13:34
015 Cock         Cederic de 02 0756 ACW          0:13:37
016 Sohilait     Niek       02 0783 Dynamica     0:13:40
017 Peijl        Youp v d   03 0770 Scheldesport 0:13:48
018 Schuit       Rens       93 0772 Scheldesport 0:15:21
019 Santen       Luca van   03 0769 Scheldesport 0:15:25
   
Meisjes D02/03  2440m
    naam                   geb stn club          tijd
001 Houtzager    Ruchama    03 0692 Delta Sport  0:11:19
002 Smits        Veerle     02 0695 AV'56        0:11:32
003 Geldof       Jasmijn    02 0690 Dynamica     0:11:35
004 Coq          Louise le  02 0680 Wielingen    0:11:37
005 Putten       Shelby van 02 0671 AV'56        0:11:42
006 Klinken      Anique van 02 0691 Delta Sport  0:11:53
007 Pellaers     Maud       02 0696 AV'56        0:12:26
008 Goudswaard   Ilse       03 0693 Delta Sport  0:12:28
009 Lelie        Fien       02 0702 RKHAV        0:12:45
010 Exter        Eva den    03 0685 RKHAV        0:12:50
011 Bun          Parel      02 0688 Dynamica     0:12:57
012 Baar         Sanne de   03 0704 AV'56        0:13:53
   
Jongens pA2 04  1220m
    naam                   geb stn club          tijd
001 Dobbelaere   Ralf de       0658 SMO          0:04:55
002 Dikkenberg   Jesse v d  04 0641 AV'56        0:04:59
003 Harthoorn    Lukas      04 0631 AV'56        0:05:25
004 Iterbeke     Mats          0657 SMO          0:05:34
005 Noordijk     Bryan      04 0646 Scheldesport 0:05:47
006 Bruijn       Tim de     04 0639 RKHAV        0:06:03
007 Zeeuw        Tobias de  04 0647 Scheldesport 0:06:06
008 Oele         Sven       04 0659 Goes         0:07:22
009 Jansen       Arne       04 0655 Delta Sport  0:08:00
   
Jongens pA1 05  1220m
    naam                   geb stn club          tijd
001 Houwelingen  Tom van    05 0594 Dynamica     0:05:05
002 Baar         Remco de   05 0605 AV'56        0:05:08
003 Cockheyt     Jorie         0618 SMO          0:05:27
004 Goethem      Maxim van  05 0640 RKHAV        0:05:29
005 Koole        Silvain    05 0619 Oostkapelle  0:05:31
006 Kapteijn     Mart       05 0606 AV'56        0:05:36
007 Behrens      Marlon     05 0616 Dynamica     0:05:51
008 Zuidhof      Chris      05 0596 Dynamica     0:05:58
009 Zuidhof      Noel       05 0595 Dynamica     0:06:01
010 Hamer        Jelte den  05 0599 Scheldesport 0:06:10
011 Wedage       Bjorn      05 0597 Scheldesport 0:06:13
012 Berg         Nino v d   05 0611 AV'56        0:06:15
013 Kerybin      Romain     05 0617 Dynamica     0:06:40
   
Meisjes pA2 04  1220m
    naam                   geb stn club          tijd
001 Haar         Dana ter   04 0565 Dynamica     0:05:40
002 Eetveld      Katja van  04 0574 RKHAV        0:05:48
003 Coppieters   Jenna      04 0564 RKHAV        0:06:01
004 Verschuren   Suzanne    04 0568 Scheldesport 0:06:12
005 Kraker       Pascalle d 04 0571 Dynamica     0:06:24
006 Widt         Daphne de  04 0566 Delta Sport  0:07:10
007 Schillings   Doris      04 0583 Dynamica     0:07:37
008 Dijkens      Luna       04 0562 RKHAV        0:07:47
   
Meisjes pA1 05  1220m
    naam                   geb stn club          tijd
001 Graaf        Amy de     05 0544 AV'56        0:05:20
002 Lorier       Lisanne    05 0542 Dynamica     0:05:28
003 Keymel       Myrthe     05 0545 Scheldesport 0:06:05
004 Pellaers     Fenne      05 0543 AV'56        0:06:55
005 Sluijs       Femke van  05 0536 AV'56        0:07:13
 
Jongens pB  06  1220m
    naam                   geb stn club          tijd
001 Maat         Fabian de  06 0515 Scheldesport 0:05:22
002 Koopman      Kasper     06 0509 Dynamica     0:05:30
003 Steenblok    Koen       06 0507 AV'56        0:05:32
004 Frederiq     Arne       06 0529 SMO          0:05:44
005 Faas         Milan      06 0514 Scheldesport 0:05:48
006 Koole        Stijn      06 0510 Dynamica     0:05:50
007 Koole        Lauran     06 0527 Oostkapelle  0:05:59
008 Rietberg     Stein      06 0528 Dynamica     0:06:21
009 Mairi        Matthias   06 0521 Dynamica     0:06:38
010 Dees         Rody       06 0453 AV'56        0:06:59
 
Jongens pC  07  1220m
    naam                   geb stn club          tijd
001 Ton          Luca       07 0476 Dynamica     0:05:41
002 Schletterer  Julius     07 0494 Dynamica     0:06:01
003 Engels       Ivar       07 0469 Dynamica     0:06:03
004 Kouijzer     Ben        07 0466 RKHAV        0:06:11
005 Hecke        Warre van     0495 SMO          0:06:16
006 Zandstra     Lucas      07 0472 Scheldesport 0:06:40
007 Wieles       Viktor     07 0475 Scheldesport 0:06:53
008 Keijmel      Ruben      07 0473 Scheldesport 0:06:55
009 Veringa      Eric       07 0477 Dynamica     0:07:01
010 Grevinga     Anthony    08 0492 Dynamica     0:07:08
011 Deturck      Lucas         0496 SMO          0:07:21
012 Oele         Niels      67 0487 AV'56        0:07:27
013 Lammers      Jona       07 0490 Dynamica     0:07:37
014 Bruins Slot  Tristan    08 0493 Dynamica     0:07:39
015 Jonge        Dylano     08 0497              0:07:44
016 Temzi        Mannis     09 0489              0:08:00
 
Meisjes pB  06  1220m
    naam                   geb stn club          tijd
001 Kraker       Yasmine    06 0444 Dynamica     0:05:44
002 Boot         Anna       06 0449 Delta Sport  0:05:56
003 Dikkenberg   Inke v d   06 0448 AV'56        0:06:08
004 Karelse      Yara       06 0442 AV'56        0:06:13
005 Simonse      Marit      06 0440 AV'56        0:06:17
006 Voorde       Kyra v d   06 0459 Dynamica     0:06:22
007 Otzel        Isable     06 0454 Delta Sport  0:06:30
008 Maas         Britt v d  06 0455 Delta Sport  0:06:32
009 Exter        Ann den    06 0443 RKHAV        0:06:38
010 Luijk        Zoe van    06 0441 AV'56        0:06:50
011 Wulf         Elise de      0460 SMO          0:07:06
012 Kramer       Mila       06 0439 AV'56        0:07:44
 
Meisjes pC  07  1220m
    naam                   geb stn club          tijd
001 Harthoorn    Marise     07 0401 Kapelle      0:05:54
002 Koole        Florence   08 0430 Oostkapelle  0:06:11
003 Hamer        Benthe den 07 0411 Scheldesport 0:06:26
004 Zerbib       Chloe      07 0406 Dynamica     0:06:43
005 Wilde        Jelke de      0428 SMO          0:06:57
006 Goudswaard   Lieke      07 0408 Delta Sport  0:06:59
007 Gils         Sara van   08 0429 Dynamica     0:07:15
008 Luijk        Tess van   07 0404 AV'56        0:07:28
009 Peeters      Demi       07 0410 Scheldesport 0:07:32
010 Verlinde     Neline     07 0409 Scheldesport 0:07:34
    
     finishers: ,11

Reactie's ovv STARTNUMMER binnen een week naar: aeromad@zeelandnet

   Hse                  crosscompetitie      Moe Eld Ink Del Sch Gre Kus bon tot  w
 1 Harmes       Erwin      0016 Loopgroep G 250 250 241 241         233 0 1215  5
 2 Kok          Martijn de 0023 Dynamica    220     233 233     250 241 0 1177  5
 3 Wolfert      Eric       0252 Flakkee     194 233 211 197 233 211 226 15 1129  7
 4 Balkenende   Luuk       0014 AV'56       178         200 220 200 211 0 1009  5
 5 Vermeulen    Sven       0021 Vlissingen  152 168 158 188         176 0 0842  5
starts  101
 
   H35-44               crosscompetitie      Moe Eld Ink Del Sch Gre Kus bon tot  w
 1 Harthoorn    Maarten    0201 Kapelle     188 226 203 211 241 207 215 15 1115  7
 2 Hamer        Michael de 0243 Scheldesport170 184         211 188 191 0 0944  5
 3 Smit         Chris de   0226 RKHAV           191 180 186     178 184 0 0919  5
 4 Karelse      Johan      0217 AV'56       148     155 166 203 168 172 5 0869  6
 5 Zeeuw        Alwin de   0241 Scheldesport143 157 148     178 159 159 5 0806  6
 6 Paulusse     Nick       0215 Dynamica    117 143 137 129 163 143 148 15 0749  7
 7 Dekker       Peter      0213 Dynamica    140 138 152 152         153 0 0735  5
 8 Sommeyer     Marcel     0228 Dynamica    130 153 142 133 170         0 0728  5
starts  135
 
   H45-54               crosscompetitie      Moe Eld Ink Del Sch Gre Kus bon tot  w
 1 Verhage      Arjo       0208 Dynamica    162 188 182 194 226 197 200 15 1020  7
 2 Cappon       Erik       0221 Wielingen   182 197 186 180 215 191     5 0976  6
 3 Balkenende   Peter      0235 AV'56       157 174 172     207 176 178 5 0912  6
 4 Slits        Peter      0220 Wielingen   158 182 176 001 186 172     5 0879  6
 5 Vos          Wilko de   0234 AV'56       163 180 170     194 170     0 0877  5
 6 Mourik       Piet van   0230 Delta Sport 138 158 156 147 184 160 158 15 0831  7
 7 Platteeuw    Albert     0238 Scheldesport139 152     138 168 149 150 5 0763  6
 8 Lelie        Martin     0264 RKHAV           142 136     161 138 140 0 0717  5
 9 Konings      Aswin      0209 Dynamica    105 133 120 112 156 139 146 15 0709  7
10 Murre        Walther    0240 Scheldesport121 145 127 135 166         0 0694  5
starts  187
 
   H55-64               crosscompetitie      Moe Eld Ink Del Sch Gre Kus bon tot  w
 1 Dellebeke    Ron        0206 Dynamica    126 149 140 116 162 148 147 15 0761  7
 2 Visser       Pieter     0257 Wielingen   120 146     123 164 144     0 0697  5
 3 Lous         Henk       0205 Dynamica    104 141 118 115     153 160 5 0692  6
starts  65
 
   H65+                 crosscompetitie      Moe Eld Ink Del Sch Gre Kus bon tot  w
 1 Lasseur      Joop       0195 Delta Sport 133 139 115 132     150 157 5 0716  6
 2 Jonge        Wim de     0191 AV'56       129 150 143 130     146 142 5 0716  6
 3 Beijer       Piet       0202 Dynamica    103 129 108 083 154 128     5 0627  6
starts  27
 
   JA 96/97             crosscompetitie      Moe Eld Ink Del Sch Gre Kus bon tot  w
 1 Vos          Patrick de 0180 AV'56               154 162 200 174 186 0 0876  5
 2 Kreek        Kris de    0179 Scheldesport137     178     191 186 180 0 0872  5
 3 Thuy         Dennis     0177 RKHAV       154 172         197 164 170 0 0857  5
starts  21
 
   Vse                  crosscompetitie      Moe Eld Ink Del Sch Gre Kus bon tot  w
 1 Verschuure   Monique    0158 AV'56           241 233 233 250 241     0 1198  5
starts  31
 
   V35-44               crosscompetitie      Moe Eld Ink Del Sch Gre Kus bon tot  w
 1 Harthoorn    Anneke     0110 Kapelle     207 207 182 191 226 203 220 15 1078  7
 2 Joziasse     Sandra     0116 Dynamica        215 188 211     215 241 0 1070  5
starts  45
 
   V45-54               crosscompetitie      Moe Eld Ink Del Sch Gre Kus bon tot  w
 1 Grim         Corina     0120 Loopgroep G     220 200 215 233 207     0 1075  5
 2 Verhage      Regina     0106 Dynamica    194 191 172     207 186 200 5 0983  6
starts  36
 
   V55+                crosscompetitie      Moe Eld Ink Del Sch Gre Kus bon tot  w
 1 Vries        Jannie de  0103 Dynamica    211 211 180 194     200 211 5 1032  6
 2 Tempelaar    Ineke      0105 Dynamica    191     174 161 220 197 215 5 1002  6
 3 Kleven       Lenie van  0102 avvn Vlissin182 184 168 153 203 184 191 15 0959  7
 4 Kleingeld    Lena       0115 avvnVliss       197     158 211 188 203 0 0957  5
starts  31
 
   MA96/97             crosscompetitie      Moe Eld Ink Del Sch Gre Kus bon tot  w
 1 Mourik       Emma van   0841 Delta Sport 250 250     250 250 250     0 1250  5
starts  5
 
   JB98/99             crosscompetitie      Moe Eld Ink Del Sch Gre Kus bon tot  w
 1 Harinck      Sergio     0851 Dynamica    220 241 241 241 241 250 241 15 1229  7
 2 Ridder       Rens de    0855 Dynamica    241 250 250     250     226 0 1217  5
 3 Balkenende   Bart       0856 AV'56       226         233 233 241 233 0 1166  5
 4 Wege         Ivar v d   0857 Scheldesport211         226 226 233 215 0 1111  5
starts  30
 
   MB98/99             crosscompetitie      Moe Eld Ink Del Sch Gre Kus bon tot  w
 1 Kreek        Maaike de  0881 Scheldesport241     241 241 241 241 241 5 1210  6
 2 Boutens      Amber      0882 Scheldesport233 250         250 233 233 0 1199  5
 3 Lodder       Judith     0876 Flakkee     226 241 226 233 233 226 226 15 1174  7
 4 Waard        Annemarie  0880 Delta Sport 220     220 226     220 220 0 1106  5
starts  33
 
   Hkcr                crosscompetitie      Moe Eld Ink Del Sch Gre Kus bon tot  w
 1 Verstraate   Wouter     0964 Dynamica        250 215 241 250 241 241 5 1228  6
 2 Heikoop      Sebastiaan 0954 Delta Sport 250 241 207 207 241 226     5 1170  6
 3 Wilde        Rien de    0959 AV'56       241 220 194 194 233 207     5 1100  6
 4 Rasenberg    Ronald     0955 Scheldesport215 194 186 184 211 188 215 15 1038  7
 5 Baar         Pieter Jan 0963 AV'56           207 191 197 226 200     0 1021  5
 6 Schanck      George     0950 Wielingen   207 188 182 182 203 184 207 15 1004  7
 7 Luteijn      Arjen      0952 Wielingen   220 197 188 188     197     0 0990  5
starts  91
 
   Vkcr                crosscompetitie      Moe Eld Ink Del Sch Gre Kus bon tot  w
 1 Mourik       Sanne van  0911 Delta Sport 211 241 250 250 241         0 1193  5
 2 Klinken      Leonie van 0901 Nieuwerkerk 200 220 226 241 226 207 233 15 1161  7
 3 Veringa      Caroline   0912 Dynamica        226 233     233 211 241 0 1144  5
 4 Kraker       Paulette d 0920 Dynamica        215 215 233     200 226 0 1089  5
 5 Widt         Loes de    0927 Delta Sport     197 200 211     194 220 0 1022  5
 6 Harinck      Angelique  0905 Dynamica    188 203 211         191 215 0 1008  5
starts  72
 
   JC00/01             crosscompetitie      Moe Eld Ink Del Sch Gre Kus bon tot  w
 1 Nefs         Emiel      0809 Dynamica    207     226 241     233 241 0 1148  5
 2 Kruisifikx   Thomas     0817 Scheldesport200     220 226 250 226 220 5 1147  6
 3 Lindhout     Siem       0812 Delta Sport 182 233 215 215 241 220 207 15 1139  7
 4 Putten       Axl van    0801 AV'56       194 241 211 207 233 215 203 15 1122  7
 5 Konings      Sylvan     0807 Dynamica    184 226 203 211     211 211 5 1067  6
 6 Nieulande    Thomas van 0808 Dynamica    180     207 203 226 207     0 1023  5
starts  63
 
   MC00/01             crosscompetitie      Moe Eld Ink Del Sch Gre Kus bon tot  w
 1 Zeeuw        Mirthe de  0730 Scheldesport241 250 250 250 250 250     5 1255  6
 2 Heikoop      Iris       0729 Delta Sport 233 241 241 233 241 233 250 15 1221  7
 3 Lange        Nikita de  0726 Dynamica    220 233 215 226 233 220 233 15 1160  7
 4 Dieren       Judith van 0723 Flakkee     215     220 220 226 226 226 5 1123  6
 5 Niemanstverd Amy        0724 RKHAV       203 220 207 207 215 211 220 15 1088  7
 6 Dhanis       Stephanie  0725 RKHAV       211 226 211 215 220     211 5 1088  6
 7 Moerland     Miquette   0728 Delta Sport 207     203 211     215 215 0 1051  5
starts  53
 
   JD02/03             crosscompetitie      Moe Eld Ink Del Sch Gre Kus bon tot  w
 1 Graaf        Robert de  0766 AV'56       250     250 250 250 250     0 1250  5
 2 Roos         Matthijs   0767 AV'56       233 250 220 220 241 233 233 15 1205  7
 3 Maat         Ralph de   0774 Scheldesport220 233 215 226 233 226 226 15 1159  7
 4 Anceaux      Daniel     0775 Scheldesport197 220 200 207 215 215 215 15 1087  7
 5 Zeeuw        Nathan de  0768 Scheldesport180 215 188 200 220 220 211 15 1081  7
 6 Wieles       Chris      0776 Scheldesport186 211 184 194 207 203 188 15 1018  7
 7 Os           Martiijn v 0764 RKHAV       191 203 191     203 200 200 5 1002  6
 8 Vierbergen   Mats       0763 RKHAV       176 200 186 197 197 194 197 15 1000  7
 9 Dobbelaar    Jonathan   0773 Scheldesport172 197 178 186 194 207 191 15 0990  7
10 Kramer       Sven       0757 AV'56       184 207 194 191     188 194 5 0979  6
11 Karelse      Ryan       0758 AV'56       188     197 188 200 191     0 0964  5
12 Peijl        Youp v d   0770 Scheldesport170 194 176 184 191 186 182 15 0952  7
13 Schuit       Rens       0772 Scheldesport164 182 172 178     184 180 5 0901  6
14 Bakker       Jordi      0777 Scheldesport174 186 170 176         001 0 0712  5
starts  147
 
   MD02/03             crosscompetitie      Moe Eld Ink Del Sch Gre Kus bon tot  w
 1 Houtzager    Ruchama    0692 Delta Sport 241     241 241 250 241 250 5 1228  6
 2 Smits        Veerle     0695 AV'56       233     233 233 241     241 0 1181  5
 3 Klinken      Anique van 0691 Delta Sport 226 250 226 226 226 226 215 15 1169  7
 4 Putten       Shelby van 0671 AV'56       203 233 207 211 233 233 220 15 1145  7
 5 Geldof       Jasmijn    0690 Dynamica    207 241 215 220 215 215 233 15 1139  7
 6 Pellaers     Maud       0696 AV'56       191 220 211 215 220 220 211 15 1101  7
 7 Coq          Louise le  0680 Wielingen   215 226 220     211     226 0 1098  5
 8 Lelie        Fien       0702 RKHAV           215 200     207 207 203 0 1032  5
 9 Goudswaard   Ilse       0693 Delta Sport 170 203 194 203 197     207 5 1009  6
10 Exter        Eva den    0685 RKHAV       186 200     200 203 197 200 5 1005  6
11 Sommeyer     Lynn       0689 Dynamica    180 188 188 207 194 211     5 0993  6
12 Acker        Emma van   0684 RKHAV       182 197     188 200 200     0 0967  5
13 Bun          Parel      0688 Dynamica    176 186 197 194 188     197 5 0967  6
14 Baar         Sanne de   0704 AV'56           184 176 186 186 194 194 5 0949  6
starts  125
 
   JpA2 04             crosscompetitie      Moe Eld Ink Del Sch Gre Kus bon tot  w
 1 Dikkenberg   Jesse v d  0641 AV'56       250     241 250 250 250 241 5 1246  6
 2 Harthoorn    Lukas      0631 AV'56       207 241 226 226 233 241 233 15 1189  7
 3 Noordijk     Bryan      0646 Scheldesport211 250 215 215 226 233 220 15 1159  7
 4 Zeeuw        Tobias de  0647 Scheldesport194 226 207 211 220 220 211 15 1103  7
starts  56
 
   JpA1 05             crosscompetitie      Moe Eld Ink Del Sch Gre Kus bon tot  w
 1 Houwelingen  Tom van    0594 Dynamica    250 241 241 250 250     250 5 1246  6
 2 Baar         Remco de   0605 AV'56           250 250 241 241 250 241 5 1237  6
 3 Goethem      Maxim van  0640 RKHAV       241 233 233 233     241 226 5 1186  6
 4 Arens        Firn       0604 AV'56       215 226 220 226 233         0 1120  5
 5 Zuidhof      Noel       0595 Dynamica    194 220 197 207 207 211 203 15 1063  7
 6 Zuidhof      Chris      0596 Dynamica    200     203 211 215 215 207 5 1056  6
 7 Hamer        Jelte den  0599 Scheldesport191 211         220 220 200 0 1042  5
 8 Wedage       Bjorn      0597 Scheldesport188 215 191 215 211     197 5 1034  6
starts  73
 
   MpA2 04             crosscompetitie      Moe Eld Ink Del Sch Gre Kus bon tot  w
 1 Haar         Dana ter   0565 Dynamica    241 250 233 241 241     250 5 1228  6
 2 Eetveld      Katja van  0574 RKHAV           233 220 226 250 250 241 5 1205  6
 3 Coppieters   Jenna      0564 RKHAV       211 226 211     233 241 233 5 1149  6
 4 Verschuren   Suzanne    0568 Scheldesport207 241 215     220 226 226 5 1133  6
 5 Kraker       Pascalle d 0571 Dynamica    203 220 203     215 233 220 5 1096  6
 6 Dijkens      Luna       0562 RKHAV       197 211 188 220 211     207 5 1051  6
 7 Kievits      Eva        0567 Delta Sport 194 207 191 215     211     0 1018  5
starts  63
 
   MpA1 05             crosscompetitie      Moe Eld Ink Del Sch Gre Kus bon tot  w
 1 Graaf        Amy de     0544 AV'56       250     250 250 250 250 250 5 1255  6
 2 Lorier       Lisanne    0542 Dynamica    241     226 241 241 241 241 5 1210  6
 3 Keymel       Myrthe     0545 Scheldesport226 250 211 233 233 233 233 15 1197  7
 4 Koole        Hilde      0546 Dynamica        241 197 220 226 226     0 1110  5
 5 Sluijs       Femke van  0536 AV'56       203 233 186 211 215 215 220 15 1109  7
 6 Pellaers     Fenne      0543 AV'56       200     188 215 220 220 226 5 1086  6
starts  52

   JpB  06 crosscompetitie                  Moe Eld Ink Del Sch Gre Kus bon tot  w
 1 Maat         Fabian de  0515 Scheldesport241 241 241 250 250 250 250 15 1256  7
 2 Koopman      Kasper     0509 Dynamica    215 250 226 233 241     241 05 1197  6
 3 Steenblok    Koen       0507 AV'56       207 233 233 241 233 241 233 15 1196  7
 4 Faas         Milan      0514 Scheldesport220     220 226 226     220 00 1112  5
 5 Koole        Stijn      0510 Dynamica    194 226 203 215 211 220 215 15 1102  7
 6 Verschuren   Niels      0511 Scheldesport197 220 211 220 220 215     05 1091  6
 7 Pijnen       Benjamin   0512 Scheldesport200 215 207 211 215 211     05 1064  6
 8 Dees         Rody       0453 AV'56               197 207 207 207 200 00 1018  5
  starts  72 
 
   JpC  07             crosscompetitie      Moe Eld Ink Del Sch Gre Kus bon tot  w
 1 Ton          Luca       0476 Dynamica        250 250 250 250 250 250 5 1255  6
 2 Engels       Ivar       0469 Dynamica    241     241 226 241 226 233 5 1187  6
 3 Kouijzer     Ben        0466 RKHAV       226 226 226 211 233     226 5 1142  6
 4 Zandstra     Lucas      0472 Scheldesport220 241 215 220 226 220 215 15 1142  7
 5 Keijmel      Ruben      0473 Scheldesport215 233 207 200 220 207 207 15 1097  7
 6 Wieles       Viktor     0475 Scheldesport211 215 203 203 215 211 211 15 1078  7
starts  77
 
   MpB  06             crosscompetitie      Moe Eld Ink Del Sch Gre Kus bon tot  w
 1 Kraker       Yasmine    0444 Dynamica    226 250 241 241 250 241 250 15 1247  7
 2 Karelse      Yara       0442 AV'56       220     250 250 241 250 226 5 1222  6
 3 Dikkenberg   Inke v d   0448 AV'56       215     233 226 233 226 233 5 1156  6
 4 Luijk        Zoe van    0441 AV'56       211 233 226 220 215 215 200 15 1124  7
 5 Simonse      Marit      0440 AV'56       203 215 211 207 226 220 220 15 1107  7
 6 Exter        Ann den    0443 RKHAV       207 226     211 220     203 0 1067  5
 7 Kramer       Mila       0439 AV'56       191 211 197 197     188 194 5 0995  6
starts  75
 
   MpC  07             crosscompetitie      Moe Eld Ink Del Sch Gre Kus bon tot  w
 1 Harthoorn    Marise     0401 Kapelle     250 250 233 226 233 250 250 15 1248  7
 2 Hamer        Benthe den 0411 Scheldesport226 233 226 233 250 241 233 15 1205  7
 3 Zerbib       Chloe      0406 Dynamica    233     250 241 241 233 226 5 1203  6
 4 Goudswaard   Lieke      0408 Delta Sport 207 226 207 215 226     215 5 1094  6
 5 Luijk        Tess van   0404 AV'56       194 203 194 207 207 220 207 15 1059  7
 6 Pijnen       Valerie    0412 Scheldesport203 215 200 203 220 211     5 1057  6
 7 Verlinde     Neline     0409 Scheldesport191 211 191 197 211 215 200 15 1049  7
 8 Peeters      Demi       0410 Scheldesport200 207 197 200 215 200 203 15 1040  7
starts  78
   totaal  1844 starts
Vorige uitslagen
DatumWedstrijdPlaatsVereniging Hits
03-03-2018 29e KustcrossVlissingenDynamica0
04-03-2017 28e KustcrossVlissingenDynamica0
27-02-2016 27e KustcrossVlissingenDynamica1341
01-03-2014 25e KustcrossVlissingenDynamica2028
02-03-2013 24e KustcrossVlissingenDynamica1614
03-03-2012 23e KustcrossVlissingenDynamica2000
11-12-2010 22e KustcrossVlissingenDynamica1932
12-12-2009 21e KustcrossVlissingenDynamica1815
13-12-2008 20e KustcrossVlissingenDynamica939
15-12-2007 19e KustcrossVlissingenDynamica1406
17-02-2007 18e KustcrossVlissingenDynamica1454
25-02-2006 17e KustcrossVlissingenDynamica1192
19-02-2005 16e KustcrossVlissingenDynamica724
14-02-2004 15e KustcrossVlissingenDynamica783
15-02-2003 14e KustcrossVlissingenDynamica759
23-02-2002 13e KustcrossVlissingenDynamica847
24-02-2001 12e KustcrossVlissingenDynamica702
26-02-2000 11e KustcrossVlissingenDynamica762
20-02-1999 10e KustcrossVlissingenDynamica785

 
Recente Zeeuwse prestaties meer prestaties
21-05: Memorial Vertommen-Cuddy Duffel (9)
3000 m Ronnie Overgaauw (PR 8.30.14)8.45.27  Mse
3000 m Bezuayehu Petersen (PR)8.51.67  JoB
1500 m Tim van den Broeke (PR)3.49.80  Mse
1500 m Franklin van Anrooij (PR)4.08.24  Mse
1500 m Chris de Smit (PR 4.30.67)4.34.17  M35
1500 m Wouter Schets (PR)4.34.93  JoB
1500 m Shirin van Anrooij (PR 4.30.89)4.42.84  MeB
800 m Bereket Petersen (PR)2.03.12  JoB
800 m Stef Kapteijn (PR 2.11.77)2.12.39  JoB
21-05: Pinksterwedstrijd Hulst (13)
19-05: Ter Specke Bokaal Lisse (3)
800 m Yunis Stitan (PR 1.53.38)1.56.61  Mse
400 m Pelle Gelderblom (PR 49.73)50.42  Mse
400 m Evan de Schrijver (PR 50.02)50.58  Mse
19-05: 7e Bokkenloop Sinaai (5)
10 EM Edwin de la Ruelle (PR 55.51)1.01.23  M50
10 EM Geert Waelput (PR)1.04.55  M45
10 EM Marnix van den Brande (PR)1.11.05  Mse
10 EM Philip Vioen (PR)1.12.50  Mse
10 EM Imo Jongepier (PR)1.33.03  M65
18-05: Track Meeting Wageningen (2)
5000 m Niek den Exter (PR)15.13.28  Mse
800 m Maaike de Kreek (PR 2.23.88)2.30.71  MeA
17-05: Track Meeting Barendrecht (6)
1000 m Hassan Mahamed (PR)2.51.08  JoA
1000 m Wouter Schets (PR 2.55.03)2.55.16  JoB
1000 m Shirin van Anrooij (PR)2.56.05  MeB
1000 m Franklin van Anrooij (PR 2.41.87)2.56.07  Mse
1000 m Aniek Aper (PR 2.57.17)2.59.62  Vse
1000 m Emma van Mourik (PR 3.16.31)3.30.90  Vse
16-05: Verkerkloop Zwijndrecht (4)
13-05: Marathon Tilburg (5)
12-05: Kaaienloop Oosterhout (3)
11-05: Track Meeting Utrecht (4)
10-05: 15 km van Standdaarbuiten (8)
10-05: Golden Tenloop Delft (2)
10-05: Harry Schulting Games Vught (12)
06-05: 1e Omloop van het Meetjesland Sint-Laureins (9)
01-05: Knokke 10 KM (4)
27-04: Vlietloop Oud-Gastel (4)
22-04: Antwerp 10 Miles & Marathon Antwerpen (11)
19-04: 3000m Meeting Oud-Beijerland (7)
15-04: Bergse Monumentenloop Bergen op Zoom (11)
14-04: 9e Wolvenloop Wachtebeke (7)
08-04: 38e Marathon Rotterdam (99)
08-04: Marathon Rome (1)
25-03: Halve marathon Lier (1)
25-03: 10 van Halsteren (13)
25-03: 13e Venloop (45)
Atletiek Zeeland © 2018